FW9262 Weather Reports


time (UTC)temp
F
wind
direction
speed
knots
gust
knots
rain 1hr
in
rain 24hr
in
rain mn
in
humidity
%
barometer
mb
20260904015644 70 328 0.0 1.7 0.00 0.00 0.00 81 1014.3
20260904015143 71 323 0.0 3.5 0.00 0.00 0.00 81 1014.3
20260904014642 71 342 1.7 2.6 0.00 0.00 0.00 80 1014.3
20260904014138 71 305 1.7 3.5 0.00 0.00 0.00 79 1014.3
20260904013634 72 261 2.6 3.5 0.00 0.00 0.00 78 1014.3
20260904013130 72 10 1.7 5.2 0.00 0.00 0.00 78 1014.3
20260904012626 72 285 0.9 5.2 0.00 0.00 0.00 77 1014.3
20260904012124 72 311 0.9 1.7 0.00 0.00 0.00 77 1014.3
20260904011623 72 261 1.7 3.5 0.00 0.00 0.00 77 1014.3
20260904011119 72 325 1.7 3.5 0.00 0.00 0.00 76 1014.3
20260904010615 72 278 1.7 3.5 0.00 0.00 0.00 78 1014.3
20260904010111 72 325 1.7 1.7 0.00 0.00 0.00 78 1014.3
20260904005606 72 237 1.7 5.2 0.00 0.00 0.00 76 1014.6
20260904005101 73 254 3.5 5.2 0.00 0.00 0.00 74 1014.3
20260904004557 73 217 1.7 6.1 0.00 0.00 0.00 74 1014.3
20260904004051 73 195 0.9 5.2 0.00 0.00 0.00 73 1014.6
20260904003548 73 214 0.9 5.2 0.00 0.00 0.00 75 1014.3
20260904003043 73 253 4.3 6.1 0.00 0.00 0.00 74 1014.3
20260904002539 73 292 2.6 5.2 0.00 0.00 0.00 75 1014.3
20260904002038 74 306 4.3 6.1 0.00 0.00 0.00 72 1014.6
20260904001535 74 317 0.9 3.5 0.00 0.00 0.00 71 1014.6
20260904001033 75 215 2.6 2.6 0.00 0.00 0.00 70 1014.6
20260904000533 75 218 2.6 5.2 0.00 0.00 0.00 70 1014.6
20260904000029 76 246 2.6 3.5 0.00 0.00 0.00 68 1014.6
20260903235524 75 268 2.6 5.2 0.00 0.00 0.00 72 1014.6
20260903235019 75 284 2.6 5.2 0.00 0.00 0.00 70 1014.6
20260903234515 75 255 4.3 6.1 0.00 0.00 0.00 71 1014.6
20260903234010 76 263 2.6 5.2 0.00 0.00 0.00 70 1014.9
20260903233506 76 341 0.0 1.7 0.00 0.00 0.00 71 1014.9
20260903233001 75 313 2.6 6.1 0.00 0.00 0.00 72 1014.9
20260903232457 76 225 2.6 5.2 0.00 0.00 0.00 71 1014.9
20260903231956 76 217 5.2 6.1 0.00 0.00 0.00 69 1014.9
20260903231451 76 246 2.6 5.2 0.00 0.00 0.00 70 1014.9
20260903230945 77 224 3.5 5.2 0.00 0.00 0.00 69 1014.9
20260903230442 75 238 1.7 5.2 0.00 0.00 0.00 71 1014.9
20260903225938 77 265 2.6 5.2 0.00 0.00 0.00 68 1015.3
20260903225433 76 246 2.6 7.0 0.00 0.00 0.00 70 1014.9
20260903224929 76 335 2.6 6.1 0.00 0.00 0.00 70 1014.9
20260903224425 76 203 3.5 6.1 0.00 0.00 0.00 71 1015.3
20260903223921 77 315 0.9 5.2 0.00 0.00 0.00 70 1015.3
20260903223420 77 199 3.5 5.2 0.00 0.00 0.00 68 1015.3
20260903222919 77 287 0.9 3.5 0.00 0.00 0.00 69 1015.3
20260903222415 77 325 1.7 3.5 0.00 0.00 0.00 69 1015.6
20260903221915 77 328 0.9 5.2 0.00 0.00 0.00 68 1015.3
20260903221414 76 200 1.7 5.2 0.00 0.00 0.00 70 1015.3
20260903220912 76 259 2.6 3.5 0.00 0.00 0.00 69 1015.6
20260903220406 76 218 3.5 6.1 0.00 0.00 0.00 70 1015.6
20260903215904 77 209 3.5 6.1 0.00 0.00 0.00 69 1016.0
20260903215401 77 221 2.6 6.1 0.00 0.00 0.00 69 1015.6
20260903214859 77 257 0.9 3.5 0.00 0.00 0.00 70 1015.6
20260903214355 77 347 1.7 3.5 0.00 0.00 0.00 69 1016.0
20260903213854 76 270 2.6 6.1 0.00 0.00 0.00 71 1015.6
20260903213349 76 267 4.3 6.1 0.00 0.00 0.00 70 1016.0
20260903212846 77 322 2.6 5.2 0.00 0.00 0.00 69 1015.6
20260903212342 76 234 3.5 7.8 0.00 0.00 0.00 70 1016.0
20260903211841 76 295 2.6 6.1 0.00 0.00 0.00 69 1016.0
20260903211337 76 262 0.9 6.1 0.00 0.00 0.00 70 1015.6
20260903210833 76 342 3.5 7.0 0.00 0.00 0.00 69 1015.6
20260903210327 76 318 3.5 7.0 0.00 0.00 0.00 69 1015.6
20260903205822 76 244 3.5 6.1 0.00 0.00 0.00 69 1016.0
20260903205322 76 228 4.3 7.0 0.00 0.00 0.00 69 1016.3
20260903204817 76 203 5.2 7.0 0.00 0.00 0.00 69 1016.0
20260903204313 77 320 3.5 6.1 0.00 0.00 0.00 69 1016.0
20260903203808 76 252 5.2 7.8 0.00 0.00 0.00 69 1016.0
20260903203304 76 188 3.5 6.1 0.00 0.00 0.00 69 1016.3
20260903202803 76 222 3.5 6.1 0.00 0.00 0.00 69 1016.0
20260903202300 76 188 5.2 6.1 0.00 0.00 0.00 68 1016.0
20260903201759 77 203 1.7 5.2 0.00 0.00 0.00 69 1016.0
20260903201254 77 255 2.6 7.0 0.00 0.00 0.00 67 1016.0
20260903200753 77 295 2.6 7.0 0.00 0.00 0.00 68 1016.0
20260903200248 76 222 2.6 7.0 0.00 0.00 0.00 68 1016.0
20260903195743 77 218 3.5 6.1 0.00 0.00 0.00 67 1016.0
20260903195240 77 191 1.7 6.1 0.00 0.00 0.00 66 1016.0
20260903194739 77 274 2.6 6.1 0.00 0.00 0.00 66 1016.3
20260903194235 77 152 4.3 7.8 0.00 0.00 0.00 67 1016.3
20260903193730 77 241 3.5 5.2 0.00 0.00 0.00 66 1016.3
20260903193226 77 146 2.6 7.0 0.00 0.00 0.00 67 1016.3
20260903192722 78 261 3.5 3.5 0.00 0.00 0.00 66 1016.6
20260903192217 76 298 1.7 3.5 0.00 0.00 0.00 67 1016.6
20260903191713 77 248 5.2 6.1 0.00 0.00 0.00 68 1016.6
20260903191209 77 320 4.3 6.1 0.00 0.00 0.00 67 1017.0
20260903190703 78 282 2.6 6.1 0.00 0.00 0.00 66 1016.6
20260903190203 77 289 2.6 5.2 0.00 0.00 0.00 66 1016.6
20260903185658 78 174 2.6 7.0 0.00 0.00 0.00 67 1016.6
20260903185152 77 325 1.7 3.5 0.00 0.00 0.00 66 1017.0
20260903184649 77 280 2.6 5.2 0.00 0.00 0.00 67 1017.0
20260903184145 77 250 3.5 6.1 0.00 0.00 0.00 67 1017.0
20260903183643 77 252 1.7 3.5 0.00 0.00 0.00 66 1017.0
20260903183139 77 184 2.6 3.5 0.00 0.00 0.00 67 1017.0
20260903182638 77 210 2.6 2.6 0.00 0.00 0.00 66 1017.0
20260903182134 77 249 1.7 6.1 0.00 0.00 0.00 67 1017.0
20260903181632 77 180 1.7 3.5 0.00 0.00 0.00 65 1017.0
20260903181127 77 72 1.7 3.5 0.00 0.00 0.00 66 1017.0
20260903180622 78 266 2.6 6.1 0.00 0.00 0.00 64 1017.0
20260903180116 77 315 0.0 1.7 0.00 0.00 0.00 66 1017.3
20260903175616 77 252 2.6 2.6 0.00 0.00 0.00 66 1017.0
20260903175115 78 248 0.9 1.7 0.00 0.00 0.00 63 1017.3
20260903174610 77 325 0.0 2.6 0.00 0.00 0.00 64 1017.0
20260903174105 78 339 0.9 1.7 0.00 0.00 0.00 62 1017.0
20260903173600 77 262 1.7 5.2 0.00 0.00 0.00 64 1017.3
20260903173056 77 286 0.9 1.7 0.00 0.00 0.00 64 1017.3
20260903172556 77 350 0.0 2.6 0.00 0.00 0.00 66 1017.3
20260903172052 77 316 0.9 3.5 0.00 0.00 0.00 65 1017.3
20260903171551 76 31 1.7 2.6 0.00 0.00 0.00 66 1017.3
20260903171047 76 348 0.9 1.7 0.00 0.00 0.00 65 1017.3
20260903170546 76 37 0.9 2.6 0.00 0.00 0.00 67 1017.3
20260903170042 74 13 0.9 1.7 0.00 0.00 0.00 70 1017.6
20260903165538 73 225 1.7 1.7 0.00 0.00 0.00 72 1017.3
20260903165034 72 32 0.0 1.7 0.00 0.00 0.00 73 1017.3
20260903164535 73 215 2.6 3.5 0.00 0.00 0.00 72 1017.3
20260903164031 73 80 0.9 2.6 0.00 0.00 0.00 72 1017.0
20260903163525 72 75 0.9 1.7 0.00 0.00 0.00 74 1017.3
20260903163021 72 328 0.0 0.9 0.00 0.00 0.00 75 1017.0
20260903162518 71 234 0.0 1.7 0.00 0.00 0.00 75 1017.3
20260903162013 71 35 1.7 2.6 0.00 0.00 0.00 75 1017.0
20260903161508 71 264 0.9 1.7 0.00 0.00 0.00 76 1017.3
20260903161004 71 340 0.0 0.9 0.00 0.00 0.00 76 1017.3
20260903160503 71 18 0.9 1.7 0.00 0.00 0.00 76 1017.3
20260903155957 71 343 0.0 0.9 0.00 0.00 0.00 76 1017.3
20260903155456 71 41 0.0 0.9 0.00 0.00 0.00 77 1017.3
20260903154953 71 329 0.0 0.0 0.00 0.00 0.00 77 1017.3
20260903154448 71 6 0.9 1.7 0.00 0.00 0.00 77 1017.0
20260903153944 71 9 0.0 0.0 0.00 0.00 0.00 77 1017.3
20260903153439 72 285 0.9 1.7 0.00 0.00 0.00 76 1017.3
20260903152936 73 346 0.0 0.9 0.00 0.00 0.00 75 1017.0
20260903152431 73 96 0.9 2.6 0.00 0.00 0.00 74 1017.3
20260903151927 73 238 0.0 1.7 0.00 0.00 0.00 76 1017.0
20260903151421 72 336 0.0 0.9 0.00 0.00 0.00 76 1017.0
20260903150916 73 294 1.7 2.6 0.00 0.00 0.00 76 1017.0
20260903150411 73 129 0.9 2.6 0.00 0.00 0.00 75 1017.3
20260903145905 73 90 0.0 0.9 0.00 0.00 0.00 76 1017.0
20260903145401 73 3 0.0 0.9 0.00 0.00 0.00 76 1017.0
20260903144900 73 56 0.9 1.7 0.00 0.00 0.00 75 1017.0
20260903144355 72 24 0.0 0.9 0.00 0.00 0.00 78 1017.0
20260903143850 72 307 0.9 0.9 0.00 0.00 0.00 77 1017.0
20260903143347 72 349 0.0 0.0 0.00 0.00 0.00 78 1016.6
20260903142842 71 346 0.0 0.9 0.00 0.00 0.00 79 1017.0
20260903142338 71 17 0.0 0.9 0.00 0.00 0.00 80 1017.0
20260903141834 70 3 0.0 0.9 0.00 0.00 0.00 82 1017.0
20260903141329 69 13 0.0 0.0 0.00 0.00 0.00 84 1016.6
20260903140824 68 352 0.0 0.0 0.00 0.00 0.00 86 1016.6
20260903140319 68 6 0.0 0.0 0.00 0.00 0.00 87 1016.6
20260903135815 67 354 0.0 0.9 0.00 0.00 0.00 87 1016.6
20260903135310 67 354 0.9 0.9 0.00 0.00 0.00 88 1016.6
20260903134809 67 22 0.9 0.9 0.00 0.00 0.00 88 1016.6
20260903134305 67 57 0.0 0.9 0.00 0.00 0.00 88 1016.6
20260903133802 67 10 0.0 1.7 0.00 0.00 0.00 88 1016.3
20260903133259 67 68 0.9 1.7 0.00 0.00 0.00 88 1016.6
20260903132758 67 347 0.0 1.7 0.00 0.00 0.00 88 1016.3
20260903132254 67 68 0.9 0.9 0.00 0.00 0.00 88 1016.6
20260903131749 67 346 0.0 0.9 0.00 0.00 0.00 88 1016.6
20260903131248 67 55 0.9 1.7 0.00 0.00 0.00 88 1016.6
20260903130743 67 1 0.0 0.9 0.00 0.00 0.00 88 1016.6
20260903130238 67 351 0.0 1.7 0.00 0.00 0.00 88 1016.6
20260903125736 67 343 0.0 0.9 0.00 0.00 0.00 88 1016.6
20260903125232 67 41 0.9 1.7 0.00 0.00 0.00 88 1016.6
20260903124731 67 51 1.7 2.6 0.00 0.00 0.00 88 1016.6
20260903124226 67 358 1.7 2.6 0.00 0.00 0.00 88 1016.3
20260903123725 67 48 1.7 1.7 0.00 0.00 0.00 88 1016.3
20260903123224 67 13 0.9 1.7 0.00 0.00 0.00 88 1016.3
20260903122723 67 345 0.0 0.9 0.00 0.00 0.00 88 1016.3
20260903122218 67 353 0.0 1.7 0.00 0.00 0.00 88 1016.6
20260903121716 67 354 0.0 0.9 0.00 0.00 0.00 88 1016.6
20260903121213 67 331 0.0 1.7 0.00 0.00 0.00 88 1016.6
20260903120712 67 346 0.0 0.9 0.00 0.00 0.00 88 1016.3
20260903120206 67 329 0.9 0.9 0.00 0.00 0.00 88 1016.6
20260903115705 67 37 0.9 2.6 0.00 0.00 0.00 88 1016.3
20260903115201 67 345 0.0 1.7 0.00 0.00 0.00 88 1016.6
20260903114655 67 70 1.7 1.7 0.00 0.00 0.00 88 1016.6
20260903114150 67 19 0.0 0.9 0.00 0.00 0.00 88 1016.6
20260903113645 67 12 0.0 1.7 0.00 0.00 0.00 88 1016.6
20260903113142 67 8 1.7 1.7 0.00 0.00 0.00 88 1016.3
20260903112637 67 350 0.9 1.7 0.00 0.00 0.00 89 1016.6
20260903112132 67 16 1.7 1.7 0.00 0.00 0.00 89 1016.6
20260903111631 67 36 0.9 0.9 0.00 0.00 0.00 89 1016.6
20260903111127 66 1 0.0 0.9 0.00 0.00 0.00 89 1016.3
20260903110623 66 43 0.9 2.6 0.00 0.00 0.00 89 1016.3
20260903110118 66 359 0.0 2.6 0.00 0.00 0.00 89 1017.0
20260903105612 66 6 0.9 1.7 0.00 0.00 0.00 89 1017.0
20260903105102 66 28 0.9 1.7 0.00 0.00 0.00 89 1016.6
20260903104602 66 28 0.9 1.7 0.00 0.00 0.00 89 1016.6
20260903104057 66 47 1.7 1.7 0.00 0.00 0.00 89 1017.0
20260903103553 66 28 0.0 1.7 0.00 0.00 0.00 89 1016.6
20260903103049 66 357 0.0 0.9 0.00 0.00 0.00 88 1017.0
20260903102544 66 52 1.7 1.7 0.00 0.00 0.00 88 1016.6
20260903102043 66 18 1.7 1.7 0.00 0.00 0.00 88 1016.6
20260903101538 66 3 0.9 1.7 0.00 0.00 0.00 88 1017.0
20260903101034 66 35 0.9 1.7 0.00 0.00 0.00 87 1016.6
20260903100533 66 76 0.9 1.7 0.00 0.00 0.00 87 1016.6
20260903100032 66 36 0.9 1.7 0.00 0.00 0.00 86 1017.0
20260903095531 66 54 1.7 1.7 0.00 0.00 0.00 85 1016.6
20260903095025 66 27 0.9 0.9 0.00 0.00 0.00 85 1016.6
20260903094520 66 28 0.9 1.7 0.00 0.00 0.00 84 1016.6
20260903094016 66 39 0.9 0.9 0.00 0.00 0.00 84 1016.6
20260903093516 66 348 0.0 0.0 0.00 0.00 0.00 83 1017.0
20260903093011 66 12 0.0 0.9 0.00 0.00 0.00 83 1017.0
20260903092510 65 346 0.9 1.7 0.00 0.00 0.00 83 1017.0
20260903092005 65 340 0.0 0.0 0.00 0.00 0.00 83 1017.0
20260903091503 65 352 0.0 1.7 0.00 0.00 0.00 83 1017.0
20260903090958 65 349 0.0 0.0 0.00 0.00 0.00 83 1017.0
20260903090454 65 350 0.0 0.9 0.00 0.00 0.00 83 1017.0
20260903085952 65 339 0.0 0.0 0.00 0.00 0.00 83 1017.0
20260903085450 65 338 0.0 0.0 0.00 0.00 0.00 82 1017.0
20260903084946 66 352 0.0 0.0 0.00 0.00 0.00 82 1017.3
20260903084444 65 335 0.0 0.9 0.00 0.00 0.00 82 1017.3
20260903083939 66 345 0.0 0.9 0.00 0.00 0.00 82 1017.3
20260903083436 66 341 0.0 0.0 0.00 0.00 0.00 82 1017.0
20260903082935 66 342 0.0 0.9 0.00 0.00 0.00 82 1017.0
20260903082429 66 338 0.0 0.9 0.00 0.00 0.00 82 1017.6
20260903081924 66 345 0.0 0.9 0.00 0.00 0.00 82 1017.3
20260903081420 66 348 0.0 0.0 0.00 0.00 0.00 83 1017.6
20260903080916 66 340 0.0 0.0 0.00 0.00 0.00 83 1017.3
20260903080412 66 342 0.0 0.0 0.00 0.00 0.00 83 1017.6
20260903075908 66 349 0.0 0.0 0.00 0.00 0.00 84 1017.6
20260903075403 66 338 0.0 0.0 0.00 0.00 0.00 84 1017.6
20260903074903 66 337 0.0 0.0 0.00 0.00 0.00 84 1017.6
20260903074357 67 336 0.0 0.0 0.00 0.00 0.00 84 1017.6
20260903073852 67 336 0.0 0.0 0.00 0.00 0.00 84 1017.3
20260903073347 67 342 0.0 0.0 0.00 0.00 0.00 83 1017.6
20260903072843 67 337 0.0 0.0 0.00 0.00 0.00 83 1017.6
20260903072339 68 341 0.0 0.9 0.00 0.00 0.00 83 1017.0
20260903071836 68 356 0.0 0.9 0.00 0.00 0.00 83 1017.3
20260903071332 68 349 0.0 0.0 0.00 0.00 0.00 83 1017.3
20260903070826 68 344 0.0 0.0 0.00 0.00 0.00 82 1017.3
20260903070322 68 347 0.0 0.0 0.00 0.00 0.00 82 1017.3
20260903065816 68 345 0.0 0.9 0.00 0.00 0.00 82 1017.3
20260903065316 68 15 1.7 1.7 0.00 0.00 0.00 82 1017.3
20260903064815 68 358 0.9 2.6 0.00 0.00 0.00 82 1017.3
20260903064310 68 354 0.0 1.7 0.00 0.00 0.00 82 1017.3
20260903063807 68 343 0.0 0.9 0.00 0.00 0.00 82 1017.3
20260903063302 68 350 0.9 0.9 0.00 0.00 0.00 81 1017.0
20260903062757 69 347 0.0 1.7 0.00 0.00 0.00 81 1017.3
20260903062256 69 32 1.7 1.7 0.00 0.00 0.00 81 1017.3
20260903061753 69 49 0.9 2.6 0.00 0.00 0.00 81 1017.3
20260903061252 69 8 0.9 1.7 0.00 0.00 0.00 81 1017.3
20260903060748 69 15 0.9 1.7 0.00 0.00 0.00 80 1017.3
20260903060247 69 27 0.9 0.9 0.00 0.00 0.00 80 1017.3
20260903055745 69 21 0.9 1.7 0.00 0.00 0.00 80 1017.3
20260903055244 69 15 0.0 0.9 0.00 0.00 0.00 79 1017.0
20260903054739 69 355 0.0 0.0 0.00 0.00 0.00 79 1017.0
20260903054234 69 357 0.0 0.0 0.00 0.00 0.00 79 1017.0
20260903053730 69 3 0.0 0.9 0.00 0.00 0.00 79 1017.0
20260903053225 69 14 0.0 0.9 0.00 0.00 0.00 79 1017.0
20260903052720 68 346 0.0 0.9 0.00 0.00 0.00 80 1017.0
20260903052216 68 352 0.0 0.0 0.00 0.00 0.00 80 1017.0
20260903051711 68 352 0.0 0.9 0.00 0.00 0.00 80 1017.3
20260903051206 68 346 0.0 0.0 0.00 0.00 0.00 80 1017.0
20260903050702 68 347 0.0 0.9 0.00 0.00 0.00 80 1017.0
20260903050201 69 359 0.0 0.0 0.00 0.00 0.00 80 1017.3
20260903045656 69 346 0.0 0.9 0.00 0.00 0.00 80 1017.0
20260903045152 69 9 0.0 0.0 0.00 0.00 0.00 80 1017.0
20260903044648 69 349 0.0 0.0 0.00 0.00 0.00 80 1017.0
20260903044143 69 358 0.9 0.9 0.00 0.00 0.00 80 1017.0
20260903043641 69 345 0.0 0.9 0.00 0.00 0.00 80 1017.0
20260903043139 69 344 0.0 0.0 0.00 0.00 0.00 80 1017.0
20260903042638 69 348 0.0 0.9 0.00 0.00 0.00 80 1017.0
20260903042133 69 347 0.0 0.9 0.00 0.00 0.00 80 1017.0
20260903041630 69 6 0.9 0.9 0.00 0.00 0.00 80 1017.0
20260903041126 69 18 0.9 1.7 0.00 0.00 0.00 81 1017.0
20260903040624 69 343 0.0 0.9 0.00 0.00 0.00 81 1017.0
20260903040121 70 8 0.9 0.9 0.00 0.00 0.00 81 1017.0
20260903035616 70 353 0.9 1.7 0.00 0.00 0.00 81 1017.0
20260903035112 70 350 0.9 1.7 0.00 0.00 0.00 81 1017.0
20260903034607 70 49 0.0 1.7 0.00 0.00 0.00 81 1016.6
20260903034102 70 11 0.9 0.9 0.00 0.00 0.00 81 1016.6
20260903033557 70 40 0.9 2.6 0.00 0.00 0.00 81 1016.6
20260903033052 70 39 1.7 1.7 0.00 0.00 0.00 81 1016.6
20260903032547 70 3 0.0 0.9 0.00 0.00 0.00 81 1016.3
20260903032043 70 44 0.0 1.7 0.00 0.00 0.00 81 1016.6
20260903031542 70 35 0.9 0.9 0.00 0.00 0.00 80 1016.3
20260903031037 70 36 0.0 1.7 0.00 0.00 0.00 80 1016.3
20260903030533 71 354 0.0 0.0 0.00 0.00 0.00 79 1016.3
20260903030029 71 335 0.0 0.0 0.00 0.00 0.00 79 1016.3
20260903025523 71 342 0.0 1.7 0.00 0.00 0.00 78 1016.6
20260903025020 71 264 0.0 0.9 0.00 0.00 0.00 76 1016.3
20260903024513 71 256 1.7 1.7 0.00 0.00 0.00 75 1016.6
20260903024007 71 317 0.0 0.9 0.00 0.00 0.00 74 1016.6
20260903023503 71 322 0.0 1.7 0.00 0.00 0.00 73 1016.6
20260903022958 71 349 0.9 1.7 0.00 0.00 0.00 72 1016.3
20260903022457 71 326 0.9 2.6 0.00 0.00 0.00 72 1016.6
20260903021955 71 323 1.7 1.7 0.00 0.00 0.00 71 1016.6
20260903021451 71 178 0.9 2.6 0.00 0.00 0.00 70 1016.3
20260903020946 71 290 0.9 1.7 0.00 0.00 0.00 70 1016.6
20260903020441 72 318 1.7 3.5 0.00 0.00 0.00 70 1016.6